This is the latest recevied weather packets stored in our database for station/object EA5JUX. If no packets are shown the sender has not sent any weather packets the latest 10 day(s).
| Time | Temp. | Humidity | Pressure | Rain* | Wind** | Luminosity | Snow |
|---|---|---|---|---|---|---|---|
| 1787785601 | 28.89° C | 42% | 1009.3 hPa | 0 mm | - | - | - |
| 1787785301 | 28.33° C | 42% | 1009.5 hPa | 0 mm | - | - | - |
| 1787785001 | 28.33° C | 45% | 1009.3 hPa | 0 mm | - | - | - |
| 1787784718 | 28.33° C | 49% | 1009.4 hPa | 0 mm | - | - | - |
| 1787784401 | 27.78° C | 50% | 1009.5 hPa | 0 mm | - | - | - |
| 1787784109 | 27.78° C | 51% | 1009.3 hPa | 0 mm | - | - | - |
| 1787783802 | 27.78° C | 51% | 1009.5 hPa | 0 mm | - | - | - |
| 1787783500 | 27.78° C | 51% | 1009.3 hPa | 0 mm | - | - | - |
| 1787783201 | 27.78° C | 52% | 1009.2 hPa | 0 mm | - | - | - |
| 1787782901 | 27.78° C | 52% | 1009.1 hPa | 0 mm | - | - | - |
| 1787782600 | 28.33° C | 51% | 1009.5 hPa | 0 mm | - | - | - |
| 1787782301 | 27.78° C | 53% | 1009.2 hPa | 0 mm | - | - | - |
| 1787782001 | 27.78° C | 53% | 1009.1 hPa | 0 mm | - | - | - |
| 1787781701 | 27.78° C | 53% | 1009.1 hPa | 0 mm | - | - | - |
| 1787781401 | 28.33° C | 54% | 1009 hPa | 0 mm | - | - | - |
| 1787781101 | 28.33° C | 53% | 1009.1 hPa | 0 mm | - | - | - |
| 1787780801 | 28.33° C | 54% | 1009.1 hPa | 0 mm | - | - | - |
| 1787780501 | 28.89° C | 53% | 1009.2 hPa | 0 mm | - | - | - |
| 1787780202 | 28.89° C | 51% | 1009.4 hPa | 0 mm | - | - | - |
| 1787779901 | 28.89° C | 51% | 1009.5 hPa | 0 mm | - | - | - |
| 1787779601 | 28.89° C | 52% | 1009.5 hPa | 0 mm | - | - | - |
| 1787779301 | 28.33° C | 54% | 1009.8 hPa | 0 mm | - | - | - |
| 1787779001 | 27.78° C | 57% | 1009.7 hPa | 0 mm | - | - | - |
| 1787778701 | 27.78° C | 61% | 1009.8 hPa | 0 mm | - | - | - |
| 1787778401 | 27.78° C | 62% | 1009.5 hPa | 0 mm | - | - | - |
* Rain latest hour (hover to see other rain measurements)
** Current wind speed in m/s (hover to see current wind gust speed)